Date String (YYYY-MM-DD hh:mm:ss) UTC,Instrument flags,Ambient pressure (hPa),Sample flow (lpm),Bypass flow (lpm),Sample temperature (°C),Ambient temperature (°C),ASC tube jacket temperature (°C),LED temperature (°C),Box temperature (°C),Sample RH (%),Span deviation,Mass concentration (μg/m³),Mass concentration (μg/m³),Mass concentration (μg/m³)
DateTimeUTC,F1_M11,P_M11,Q1_M11,Q2_M11,T1_M11,T2_M11,T3_M11,T4_M11,T5_M11,U1_M11,ZSPAN_M11,X2_M11,X0_M11,X1_M11
2021-10-06 23:00:00,,0824.3,5.00,0.00,29.4,27.2,00.0,38.5,31.1,18.8,0001.2,0006.21,0026.94,0004.55
2021-10-06 23:01:00,,0824.2,4.99,0.00,29.4,27.6,00.0,38.5,31.1,18.7,0001.2,0006.19,0027.79,0004.53
2021-10-06 23:02:00,,0824.2,5.01,0.00,29.4,27.9,00.0,38.5,31.2,18.6,0001.6,0006.15,0027.33,0004.53
2021-10-06 23:03:00,,0824.3,4.99,0.00,29.5,28.1,00.0,38.5,31.3,18.7,0002.1,0006.12,0026.81,0004.53
2021-10-06 23:04:00,,0824.3,5.00,0.00,29.5,28.3,00.0,38.5,31.3,18.7,0002.2,0006.20,0026.49,0004.53
2021-10-06 23:05:00,,0824.3,5.01,0.00,29.5,28.5,00.0,38.5,31.4,18.5,0002.8,0006.28,0026.19,0004.54
2021-10-06 23:06:00,,0824.3,4.99,0.00,29.6,28.7,00.0,38.5,31.5,18.6,0002.9,0006.30,0024.91,0004.53
2021-10-06 23:07:00,,0824.3,4.99,0.00,29.6,28.8,00.0,38.6,31.5,18.6,0002.8,0006.32,0023.42,0004.52
2021-10-06 23:08:00,,0824.3,5.00,0.00,29.7,28.9,00.0,38.6,31.6,18.6,0002.4,0006.28,0022.62,0004.52
2021-10-06 23:09:00,,0824.3,5.00,0.00,29.7,29.0,00.0,38.6,31.6,18.4,0000.0,0006.28,0022.63,0004.52
2021-10-06 23:10:00,,0824.2,5.01,0.00,29.8,29.1,00.0,38.6,31.7,18.4,0000.0,0006.25,0021.16,0004.52
2021-10-06 23:11:00,,0824.3,4.98,0.00,29.8,28.3,00.0,38.7,31.5,18.2,0002.8,0006.22,0020.67,0004.52
2021-10-06 23:12:00,,0824.2,5.01,0.00,29.6,26.2,00.0,38.7,30.9,18.4,0001.7,0006.30,0019.53,0004.53
2021-10-06 23:13:00,,0824.2,5.00,0.00,29.5,25.6,00.0,38.6,30.7,18.8,0002.9,0006.39,0019.15,0004.54
2021-10-06 23:14:00,,0824.2,5.00,0.00,29.4,26.0,00.0,38.6,30.8,18.7,0002.0,0006.41,0018.80,0004.55
2021-10-06 23:15:00,,0824.2,5.00,0.00,29.3,26.5,00.0,38.5,30.9,18.8,0000.1,0006.36,0018.19,0004.55
2021-10-06 23:16:00,,0824.2,4.99,0.00,29.3,26.9,00.0,38.5,31.0,19.0,0002.0,0006.34,0018.17,0004.56
2021-10-06 23:17:00,,0824.2,4.99,0.00,29.3,27.4,00.0,38.5,31.1,18.8,0001.7,0006.33,0018.99,0004.57
2021-10-06 23:18:00,,0824.2,5.01,0.00,29.4,27.7,00.0,38.5,31.2,18.6,0000.0,0006.35,0019.62,0004.59
2021-10-06 23:19:00,,0824.2,5.00,0.00,29.4,28.0,00.0,38.5,31.2,18.6,0000.0,0006.34,0020.22,0004.59
2021-10-06 23:20:00,,0824.2,4.99,0.00,29.5,28.2,00.0,38.5,31.3,18.7,0001.3,0006.30,0020.58,0004.61
2021-10-06 23:21:00,,0824.2,5.00,0.00,29.5,28.4,00.0,38.5,31.4,18.6,0000.5,0006.28,0021.10,0004.62
2021-10-06 23:22:00,,0824.2,5.00,0.00,29.5,28.6,00.0,38.5,31.4,18.5,0000.1,0006.29,0021.29,0004.63
2021-10-06 23:23:00,,0824.2,5.00,0.00,29.6,28.7,00.0,38.5,31.5,18.6,0000.7,0006.25,0021.21,0004.65
2021-10-06 23:24:00,,0824.2,5.00,0.00,29.6,28.8,00.0,38.6,31.5,18.6,0000.0,0006.19,0021.00,0004.64
2021-10-06 23:25:00,,0824.2,5.01,0.00,29.7,28.9,00.0,38.6,31.6,18.4,0000.0,0006.19,0020.48,0004.64
2021-10-06 23:26:00,,0824.2,4.98,0.00,29.7,29.0,00.0,38.6,31.6,18.5,0000.0,0006.18,0021.20,0004.64
2021-10-06 23:27:00,,0824.2,5.01,0.00,29.7,28.3,00.0,38.6,31.4,18.6,0000.0,0006.17,0022.56,0004.64
2021-10-06 23:28:00,,0824.1,4.99,0.00,29.6,26.1,00.0,38.6,30.8,18.6,0002.2,0006.18,0023.70,0004.65
2021-10-06 23:29:00,,0824.1,5.00,0.00,29.4,25.6,00.0,38.6,30.7,18.8,0003.3,0006.19,0023.01,0004.64
2021-10-06 23:30:00,,0824.1,4.98,0.00,29.3,25.9,00.0,38.6,30.8,19.1,0003.0,0006.25,0021.86,0004.65
2021-10-06 23:31:00,,0824.1,4.99,0.00,29.3,26.4,00.0,38.5,30.8,19.2,0003.1,0006.31,0021.88,0004.65
2021-10-06 23:32:00,,0824.1,5.01,0.00,29.3,26.9,00.0,38.5,30.9,19.3,0002.9,0006.37,0021.40,0004.65
2021-10-06 23:33:00,,0824.2,5.00,0.00,29.3,27.3,00.0,38.5,31.0,19.3,0002.6,0006.33,0020.34,0004.65
2021-10-06 23:34:00,,0824.2,5.00,0.00,29.3,27.7,00.0,38.4,31.1,19.0,0000.1,0006.29,0020.68,0004.64
2021-10-06 23:35:00,,0824.2,5.00,0.00,29.4,27.9,00.0,38.4,31.2,18.8,0002.9,0006.38,0021.29,0004.65
2021-10-06 23:36:00,,0824.2,4.99,0.00,29.4,28.2,00.0,38.4,31.2,18.9,0001.9,0006.43,0022.83,0004.64
2021-10-06 23:37:00,,0824.2,5.00,0.00,29.4,28.3,00.0,38.5,31.3,18.8,0001.5,0006.47,0022.66,0004.64
2021-10-06 23:38:00,,0824.2,5.00,0.00,29.5,28.5,00.0,38.5,31.4,18.8,0000.0,0006.45,0021.79,0004.64
2021-10-06 23:39:00,,0824.2,5.01,0.00,29.5,28.6,00.0,38.5,31.4,18.7,0000.0,0006.50,0021.21,0004.65
2021-10-06 23:40:00,,0824.2,5.00,0.00,29.6,28.8,00.0,38.5,31.5,18.6,0000.0,0006.52,0022.26,0004.65
2021-10-06 23:41:00,,0824.2,5.00,0.00,29.6,28.8,00.0,38.5,31.5,18.7,0000.0,0006.46,0022.77,0004.65
2021-10-06 23:42:00,,0824.1,5.00,0.00,29.7,28.9,00.0,38.6,31.6,18.5,0000.0,0006.46,0023.75,0004.65
2021-10-06 23:43:00,,0824.1,5.00,0.00,29.7,28.9,00.0,38.6,31.6,18.4,0000.0,0006.46,0024.92,0004.66
2021-10-06 23:44:00,,0824.1,5.00,0.00,29.7,27.2,00.0,38.6,31.2,18.6,0000.0,0006.53,0026.63,0004.66
2021-10-06 23:45:00,,0824.1,4.99,0.00,29.5,25.6,00.0,38.6,30.7,18.7,0000.0,0006.54,0026.91,0004.66
2021-10-06 23:46:00,,0824.1,5.01,0.00,29.4,25.7,00.0,38.6,30.7,18.9,0000.0,0006.43,0025.90,0004.65
2021-10-06 23:47:00,,0824.1,5.00,0.00,29.3,26.1,00.0,38.5,30.8,18.9,0000.0,0006.42,0024.81,0004.65
2021-10-06 23:48:00,,0824.1,5.00,0.00,29.3,26.6,00.0,38.5,30.9,19.0,0000.0,0006.38,0024.60,0004.63
2021-10-06 23:49:00,,0824.1,5.00,0.00,29.3,27.1,00.0,38.4,31.0,19.0,0000.0,0006.44,0023.88,0004.61
2021-10-06 23:50:00,,0824.1,4.99,0.00,29.3,27.4,00.0,38.4,31.0,18.9,0000.0,0006.41,0023.12,0004.60
2021-10-06 23:51:00,,0824.1,5.00,0.00,29.3,27.8,00.0,38.4,31.1,18.9,0000.0,0006.44,0023.04,0004.59
2021-10-06 23:52:00,,0824.2,5.00,0.00,29.4,28.0,00.0,38.4,31.2,18.8,0000.0,0006.50,0023.40,0004.58
2021-10-06 23:53:00,,0824.2,5.01,0.00,29.4,28.2,00.0,38.4,31.3,18.8,0000.0,0006.53,0023.36,0004.57
2021-10-06 23:54:00,,0824.2,5.00,0.00,29.4,28.4,00.0,38.4,31.3,19.2,0000.0,0006.50,0023.40,0004.55
2021-10-06 23:55:00,,0824.3,5.00,0.00,29.5,28.5,00.0,38.5,31.4,19.6,0000.0,0006.41,0022.42,0004.53
2021-10-06 23:56:00,,0824.3,4.99,0.00,29.5,28.7,00.0,38.5,31.4,19.2,0000.0,0006.41,0021.72,0004.52
2021-10-06 23:57:00,,0824.3,5.00,0.00,29.6,28.8,00.0,38.5,31.5,18.8,0000.0,0006.43,0023.08,0004.53
2021-10-06 23:58:00,,0824.3,4.99,0.00,29.6,28.9,00.0,38.5,31.5,18.7,0000.0,0006.40,0023.66,0004.53
2021-10-06 23:59:00,,0824.3,5.01,0.00,29.7,29.0,00.0,38.6,31.6,18.6,0000.0,0006.38,0024.88,0004.53
